Miscellaneous Local Product
Issued by NWS North Platte, NE

Home | Current Version | Previous Version | Text Only | Print | Product List | Glossary On
Versions: 1 2 3 4 5 6 7 8 9 10 11 12 13 14 15 16 17 18 19 20 21 22 23 24 25 26 27 28 29 30 31 32 33 34 35 36 37 38 39 40 41 42 43 44 45 46 47 48 49 50
518
AXUS43 KLBF 040610
MISLBF


WESTERN AND NORTH CENTRAL NEBRASKA HOURLY WEATHER ROUNDUP
NATIONAL WEATHER SERVICE NORTH PLATTE NE
1200 AM CST SUN DEC 04 2016

NOTE: "FAIR" INDICATES FEW OR NO CLOUDS BELOW 12,000 FEET WITH NO
SIGNIFICANT WEATHER AND/OR OBSTRUCTIONS TO VISIBILITY.

NOTE: STATIONS NOT REPORTING VARIABLES SUCH AS SKY/WEATHER OR
PRESSURE ARE PROVIDED BY RAWS AND APRS NETWORKS AND ARE NOT UNDER
NATIONAL WEATHER SERVICE QUALITY CONTROL.

...OBSERVATIONS IN AND NEAR THE EASTERN PANHANDLE OF NEBRASKA...

CITY           SKY/WX    TMP DP  RH WIND       PRES   REMARKS
PINE RIDGE     PTCLDY    25  20  81 NW3       29.96R
CHADRON        CLOUDY    27  17  66 SW10      29.98S WCI  17
ALLIANCE       PTCLDY    20  12  71 W9        29.97S WCI   9
SIDNEY         PTCLDY    25  15  66 W12       30.01S WCI  14
CRESCENT LAKE    N/A     28  15  57 W9          N/A  WCI  19
$$

...OBSERVATIONS IN NORTHERN NEBRASKA AND FAR SOUTHERN SOUTH DAKOTA...

CITY           SKY/WX    TMP DP  RH WIND       PRES   REMARKS
WINNER         FAIR      30  22  72 S7        29.92F WCI  23
VALENTINE      CLOUDY    27  20  75 SW9       29.93F WCI  18
THEDFORD       PTCLDY    25  18  75 CALM      29.97S
AINSWORTH      CLEAR     26  19  74 SW6       29.94F WCI  19
O`NEILL        PTCLDY    34  32  92 SW9       29.96S WCI  27
ORD            CLOUDY    33  29  85 SW10      29.98F WCI  25
BROKEN BOW     MOCLDY    32  30  92 SW6       29.98S WCI  26
VALENTINE NWR    N/A     28  18  65 W6          N/A  WCI  22
BUTTE            N/A     32  27  82 SW6         N/A  WCI  26
HALSEY           N/A     28  24  83 SW3         N/A
CHAMBERS         N/A     33  30  90 SW6         N/A  WCI  27
EWING            N/A     33  31  94 SW9         N/A  WCI  25
$$

...OBSERVATIONS IN SOUTHWEST NEBRASKA AND FAR NORTHEAST COLORADO...

CITY           SKY/WX    TMP DP  RH WIND       PRES   REMARKS
HOLYOKE        FAIR      28  16  59 W9        30.03S WCI  20
IMPERIAL       CLOUDY    28  15  58 W9        30.02S WCI  19
OGALLALA       CLOUDY    31  18  60 W5        30.01S WCI  26
NORTH PLATTE   MOCLDY    28  26  92 S3        30.00S
MCCOOK         CLEAR     30  28  92 W12       30.02S WCI  20
LEXINGTON      CLOUDY    33  32  94 W7        30.00F WCI  27
STAPLETON        N/A     23  22  94 CALM        N/A
GOTHENBURG       N/A     32  30  92 SW3         N/A
CALLAWAY         N/A     30  29  94 SW5         N/A  WCI  25
$$

...OBSERVATIONS IN CENTRAL LINCOLN COUNTY AREA...

CITY           SKY/WX    TMP DP  RH WIND       PRES   REMARKS
N.P. AIRPORT   MOCLDY    28  26  92 S3        30.00S
N.P. DOWNTOWN    N/A     27  24  88 CALM        N/A
N.P. SOUTHEAST   N/A     28  25  87 CALM        N/A
N.P. HILLCREST   N/A     27  25  93 W3          N/A
$$

...SOME OBSERVATIONS FROM AROUND THE REGION...

CITY           SKY/WX    TMP DP  RH WIND       PRES   REMARKS
LARAMIE        CLEAR     19   8  62 W15       29.99S WCI   5
CHEYENNE       CLEAR     24   9  52 W18G25    29.99R WCI  10
DENVER         CLEAR     27  10  49 SW6       30.03S WCI  20
AKRON          CLEAR     24  10  55 NW7       30.02F WCI  16
SCOTTSBLUFF    PTCLDY    23  13  65 NW6       30.01R WCI  16
RAPID CITY     CLEAR     27  20  75 W7        29.92R WCI  19
BISMARCK       CLOUDY    30  25  81 CALM      29.79S
PIERRE         CLOUDY    30  23  75 SW10      29.88S WCI  21
SIOUX FALLS    CLOUDY    34  33  96 S14G26    29.99F FOG     WCI  25
OMAHA          LGT RAIN  33  29  85 SE5       30.05F VSB 1   WCI  29
GRAND ISLAND   CLOUDY    32  32 100 SW10      30.03F WCI  24
KANSAS CITY    LGT RAIN  41  37  86 S6        30.10S
WICHITA        LGT RAIN  42  41  96 N5        30.06F FOG
OKLAHOMA CITY  CLOUDY    44  43  96 E6        30.01F FOG
DALLAS         CLOUDY    48  45  89 NE8       29.95F
AMARILLO       CLOUDY    38  38 100 CALM      30.01R
DODGE CITY     CLOUDY    37  36  96 CALM      30.05R
HAYS           CLOUDY    32  31  96 NW5       30.05F FOG     WCI  27
GOODLAND       CLOUDY    25  16  68 W12       30.04R WCI  14
$$




USA.gov is the U.S. government's official web portal to all federal, state and local government web resources and services.